TimeEDT,TemperatureF,Dew PointF,Humidity,Sea Level PressureIn,VisibilityMPH,Wind Direction,Wind SpeedMPH,Gust SpeedMPH,PrecipitationIn,Events,Conditions,WindDirDegrees,DateUTC
12:45 AM,60.8,55.4,82,29.97,10.0,Calm,Calm,-,N/A,,Mostly Cloudy,0,2013-04-19 04:45:00
12:53 AM,62.1,55.0,78,29.96,10.0,Variable,3.5,-,N/A,,Mostly Cloudy,0,2013-04-19 04:53:00
1:53 AM,62.1,55.9,80,29.93,10.0,Variable,4.6,-,N/A,,Overcast,0,2013-04-19 05:53:00
2:53 AM,63.0,55.9,78,29.90,10.0,South,8.1,-,N/A,,Overcast,180,2013-04-19 06:53:00
3:53 AM,62.1,55.9,80,29.88,10.0,South,8.1,-,N/A,,Overcast,190,2013-04-19 07:53:00
4:53 AM,62.1,55.9,80,29.86,10.0,South,9.2,-,N/A,,Overcast,180,2013-04-19 08:53:00
5:53 AM,63.0,57.0,81,29.85,10.0,South,9.2,-,N/A,,Overcast,190,2013-04-19 09:53:00
6:53 AM,63.0,57.0,81,29.84,10.0,South,12.7,-,N/A,,Mostly Cloudy,180,2013-04-19 10:53:00
7:53 AM,64.0,57.0,78,29.83,10.0,South,9.2,-,N/A,,Overcast,180,2013-04-19 11:53:00
8:53 AM,64.9,57.0,75,29.81,10.0,Variable,4.6,-,N/A,,Overcast,0,2013-04-19 12:53:00
9:53 AM,66.9,57.9,73,29.78,10.0,South,17.3,25.3,N/A,,Mostly Cloudy,180,2013-04-19 13:53:00
10:42 AM,69.8,59.0,68,29.73,10.0,SSE,21.9,31.1,N/A,,Mostly Cloudy,160,2013-04-19 14:42:00
10:53 AM,68.0,59.0,73,29.75,10.0,South,19.6,28.8,N/A,,Mostly Cloudy,180,2013-04-19 14:53:00
11:23 AM,69.8,59.0,68,29.74,10.0,South,23.0,31.1,N/A,,Mostly Cloudy,170,2013-04-19 15:23:00
11:53 AM,70.0,60.1,71,29.73,10.0,South,13.8,25.3,N/A,,Overcast,180,2013-04-19 15:53:00
12:53 PM,71.1,60.1,68,29.69,10.0,South,19.6,29.9,N/A,,Overcast,180,2013-04-19 16:53:00
1:53 PM,72.0,60.1,66,29.65,10.0,South,15.0,27.6,N/A,,Overcast,190,2013-04-19 17:53:00
2:53 PM,73.9,61.0,64,29.59,10.0,South,15.0,33.4,N/A,,Scattered Clouds,190,2013-04-19 18:53:00
3:53 PM,72.0,61.0,68,29.57,10.0,South,16.1,25.3,0.00,Rain,Light Rain,170,2013-04-19 19:53:00
4:53 PM,72.0,61.0,68,29.55,10.0,South,10.4,20.7,0.00,Rain,Light Rain,170,2013-04-19 20:53:00
5:24 PM,69.8,62.6,78,29.55,2.0,South,9.2,18.4,0.07,Rain,Heavy Rain,180,2013-04-19 21:24:00
5:36 PM,68.0,64.4,88,29.57,1.5,Variable,6.9,20.7,0.15,Rain,Rain,0,2013-04-19 21:36:00
5:40 PM,68.0,64.4,88,29.57,2.0,SW,6.9,17.3,0.16,Rain,Rain,230,2013-04-19 21:40:00
5:53 PM,68.0,64.0,87,29.55,3.0,South,8.1,-,0.19,Rain,Rain,180,2013-04-19 21:53:00
6:03 PM,68.0,64.4,88,29.55,3.0,South,8.1,-,0.03,Rain,Rain,170,2013-04-19 22:03:00
6:27 PM,66.2,64.4,94,29.61,0.5,WSW,17.3,33.4,0.23,Fog-Rain,Rain,240,2013-04-19 22:27:00
6:35 PM,62.6,60.8,94,29.61,0.2,SW,12.7,36.8,0.47,Fog-Rain,Heavy Rain,230,2013-04-19 22:35:00
6:53 PM,59.0,54.0,83,29.61,4.0,WNW,10.4,18.4,0.57,Rain,Light Rain,290,2013-04-19 22:53:00
7:19 PM,57.2,55.4,94,29.67,2.0,West,6.9,-,0.06,Rain,Heavy Rain,260,2013-04-19 23:19:00
7:32 PM,57.2,55.4,94,29.68,6.0,WSW,3.5,-,0.07,Rain,Light Rain,240,2013-04-19 23:32:00
7:53 PM,57.0,57.0,100,29.69,5.0,West,3.5,-,0.10,Rain,Rain,260,2013-04-19 23:53:00
8:10 PM,55.4,55.4,100,29.71,10.0,WNW,8.1,-,0.01,Rain,Light Rain,300,2013-04-20 00:10:00
8:28 PM,55.4,51.8,88,29.73,10.0,Variable,3.5,-,0.01,,Scattered Clouds,0,2013-04-20 00:28:00
8:53 PM,54.0,52.0,93,29.73,10.0,WNW,5.8,-,0.01,,Overcast,300,2013-04-20 00:53:00
9:53 PM,53.1,41.0,64,29.76,10.0,WNW,10.4,19.6,N/A,,Overcast,290,2013-04-20 01:53:00
10:53 PM,52.0,39.9,63,29.79,10.0,West,4.6,-,0.00,Rain,Light Rain,280,2013-04-20 02:53:00
11:53 PM,50.0,37.9,63,29.79,10.0,WNW,5.8,-,0.01,Rain,Light Rain,290,2013-04-20 03:53:00